owner,sensor,date,latitude,longitude,vertical_datum,direction_of_sea_water_velocity,sea_water_speed,upward_sea_water_velocity,qcFlag 
TABS,ioos:station:wmo:42043:1,2017-08-21T13:00:00Z,28.9818,-94.9186,-2.0,272.3,3279.53,-99999.0,'1111122,1111122,1199999999' 
TABS,ioos:station:wmo:42043:1,2017-08-21T13:30:00Z,28.9818,-94.9186,-2.0,274.1,3285.19,-99999.0,'1111122,1111122,1199999999' 
TABS,ioos:station:wmo:42043:1,2017-08-21T14:30:00Z,28.9818,-94.9186,-2.0,271.7,3278.19,-99999.0,'1111122,1111122,1199999999' 
TABS,ioos:station:wmo:42043:1,2017-08-21T17:00:00Z,28.9818,-94.9186,-2.0,271.3,3277.67,-99999.0,'1111122,1111122,1199999999' 
TABS,ioos:station:wmo:42043:1,2017-08-21T18:00:00Z,28.9818,-94.9186,-2.0,274.2,3285.48,-99999.0,'1111122,1111122,1199999999' 
TABS,ioos:station:wmo:42043:1,2017-08-22T17:00:00Z,28.9818,-94.9186,-2.0,271.6,3278.03,-99999.0,'1111122,1111122,1199999999' 
TABS,ioos:station:wmo:42043:1,2017-08-22T17:30:00Z,28.9818,-94.9186,-2.0,35.0,225.0,-99999.0,'1111122,1111122,1199999999' 
TABS,ioos:station:wmo:42043:1,2017-08-22T20:00:00Z,28.9818,-94.9186,2.0,37.806652,7.340980861,-99999.0,'11133222,11111222,99999999' 
TABS,ioos:station:wmo:42043:1,2017-08-22T20:30:00Z,28.9818,-94.9186,2.0,21.59547041,5.1623638,-99999.0,'11133222,11111222,99999999' 
TABS,ioos:station:wmo:42043:1,2017-08-22T21:00:00Z,28.9818,-94.9186,2.0,32.79966503,10.70700705,-99999.0,'11111222,11111222,99999999' 
TABS,ioos:station:wmo:42043:1,2017-08-22T21:30:00Z,28.9818,-94.9186,2.0,5.128389509,7.831347266,-99999.0,'11133222,11111222,99999999' 
TABS,ioos:station:wmo:42043:1,2017-08-22T22:00:00Z,28.9818,-94.9186,2.0,355.8405779,5.514526272,-99999.0,'11133222,11111222,99999999' 
TABS,ioos:station:wmo:42043:1,2017-08-22T22:30:00Z,28.9818,-94.9186,2.0,348.8455768,7.236711961,-99999.0,'11133222,11111222,99999999' 
TABS,ioos:station:wmo:42043:1,2017-08-22T23:00:00Z,28.9818,-94.9186,2.0,353.2601701,11.07655181,-99999.0,'11111222,11111222,99999999' 
TABS,ioos:station:wmo:42043:1,2017-08-22T23:30:00Z,28.9818,-94.9186,2.0,343.7912234,8.956003573,-99999.0,'11133222,11111222,99999999' 
TABS,ioos:station:wmo:42043:1,2017-08-23T00:00:00Z,28.9818,-94.9186,2.0,322.8643221,12.92013932,-99999.0,'11111222,11111222,99999999' 
TABS,ioos:station:wmo:42043:1,2017-08-23T00:30:00Z,28.9818,-94.9186,2.0,347.7539062,13.20037878,-99999.0,'11111222,11111222,99999999' 
TABS,ioos:station:wmo:42043:1,2017-08-23T01:00:00Z,28.9818,-94.9186,2.0,340.9492463,14.70544117,-99999.0,'11111222,11111222,99999999' 
TABS,ioos:station:wmo:42043:1,2017-08-23T01:30:00Z,28.9818,-94.9186,2.0,337.2252942,14.20774437,-99999.0,'11111222,11111222,99999999' 
TABS,ioos:station:wmo:42043:1,2017-08-23T02:00:00Z,28.9818,-94.9186,2.0,347.7354654,16.47604321,-99999.0,'11111222,11111222,99999999' 
TABS,ioos:station:wmo:42043:1,2017-08-23T02:30:00Z,28.9818,-94.9186,2.0,336.7057017,15.67801008,-99999.0,'11111222,11111222,99999999' 
TABS,ioos:station:wmo:42043:1,2017-08-23T03:00:00Z,28.9818,-94.9186,2.0,351.0477581,14.78005413,-99999.0,'11111222,11111222,99999999' 
TABS,ioos:station:wmo:42043:1,2017-08-23T03:30:00Z,28.9818,-94.9186,2.0,353.8410618,13.98070098,-99999.0,'11111222,11111222,99999999' 
TABS,ioos:station:wmo:42043:1,2017-08-23T04:00:00Z,28.9818,-94.9186,2.0,355.6751601,11.93398508,-99999.0,'11111222,11111222,99999999' 
TABS,ioos:station:wmo:42043:1,2017-08-23T04:30:00Z,28.9818,-94.9186,2.0,357.0135805,11.51564154,-99999.0,'11111222,11111222,99999999' 
TABS,ioos:station:wmo:42043:1,2017-08-23T05:00:00Z,28.9818,-94.9186,2.0,45.00010523,19.65756852,-99999.0,'11111222,11111222,99999999' 
TABS,ioos:station:wmo:42043:1,2017-08-23T05:30:00Z,28.9818,-94.9186,2.0,7.460759139,8.471717653,-99999.0,'11133222,11111222,99999999' 
TABS,ioos:station:wmo:42043:1,2017-08-23T06:00:00Z,28.9818,-94.9186,2.0,16.18937886,9.684007435,-99999.0,'11133222,11111222,99999999' 
TABS,ioos:station:wmo:42043:1,2017-08-23T06:30:00Z,28.9818,-94.9186,2.0,25.84453758,7.111258679,-99999.0,'11133222,11111222,99999999' 
TABS,ioos:station:wmo:42043:1,2017-08-23T07:00:00Z,28.9818,-94.9186,2.0,19.24969132,6.673080248,-99999.0,'11133222,11111222,99999999' 
TABS,ioos:station:wmo:42043:1,2017-08-23T07:30:00Z,28.9818,-94.9186,2.0,16.83764371,7.940403012,-99999.0,'11133222,11111222,99999999' 
TABS,ioos:station:wmo:42043:1,2017-08-23T08:00:00Z,28.9818,-94.9186,2.0,30.82780067,7.220110802,-99999.0,'11133222,11111222,99999999' 
TABS,ioos:station:wmo:42043:1,2017-08-23T08:30:00Z,28.9818,-94.9186,2.0,24.90492103,6.174139616,-99999.0,'11133222,11111222,99999999' 
TABS,ioos:station:wmo:42043:1,2017-08-23T09:00:00Z,28.9818,-94.9186,2.0,16.96631889,6.168468205,-99999.0,'11133222,11111222,99999999' 
TABS,ioos:station:wmo:42043:1,2017-08-23T09:30:00Z,28.9818,-94.9186,2.0,13.60072117,6.378871374,-99999.0,'11133222,11111222,99999999' 
TABS,ioos:station:wmo:42043:1,2017-08-23T10:00:00Z,28.9818,-94.9186,2.0,31.26386905,3.275667871,-99999.0,'11133222,11111222,99999999' 
TABS,ioos:station:wmo:42043:1,2017-08-23T10:30:00Z,28.9818,-94.9186,2.0,12.80444658,6.768308504,-99999.0,'11133222,11111222,99999999' 
TABS,ioos:station:wmo:42043:1,2017-08-23T11:00:00Z,28.9818,-94.9186,2.0,355.2365799,7.224956747,-99999.0,'11133222,11111222,99999999' 
TABS,ioos:station:wmo:42043:1,2017-08-23T11:30:00Z,28.9818,-94.9186,2.0,341.7483573,9.897979592,-99999.0,'11133222,11111222,99999999' 
TABS,ioos:station:wmo:42043:1,2017-08-23T12:00:00Z,28.9818,-94.9186,2.0,341.7483573,9.897979592,-99999.0,'11133222,11111222,99999999' 
TABS,ioos:station:wmo:42043:1,2017-08-23T12:30:00Z,28.9818,-94.9186,2.0,339.7753983,10.12422837,-99999.0,'11111222,11111222,99999999' 
TABS,ioos:station:wmo:42043:1,2017-08-23T13:00:00Z,28.9818,-94.9186,2.0,335.297838,11.00727032,-99999.0,'11111222,11111222,99999999' 
TABS,ioos:station:wmo:42043:1,2017-08-23T13:30:00Z,28.9818,-94.9186,2.0,347.5928209,10.23914059,-99999.0,'11111222,11111222,99999999' 
TABS,ioos:station:wmo:42043:1,2017-08-23T14:00:00Z,28.9818,-94.9186,2.0,348.4864062,11.02179659,-99999.0,'11111222,11111222,99999999' 
TABS,ioos:station:wmo:42043:1,2017-08-23T14:30:00Z,28.9818,-94.9186,2.0,337.0275428,9.992497185,-99999.0,'11133222,11111222,99999999' 
TABS,ioos:station:wmo:42043:1,2017-08-23T15:00:00Z,28.9818,-94.9186,2.0,328.5707183,10.54751155,-99999.0,'11111222,11111222,99999999' 
TABS,ioos:station:wmo:42043:1,2017-08-23T15:30:00Z,28.9818,-94.9186,2.0,338.198852,7.53923073,-99999.0,'11133222,11111222,99999999' 
TABS,ioos:station:wmo:42043:1,2017-08-23T16:00:00Z,28.9818,-94.9186,2.0,6.789169158,4.229657197,-99999.0,'11133222,11111222,99999999' 
TABS,ioos:station:wmo:42043:1,2017-08-23T16:30:00Z,28.9818,-94.9186,2.0,352.0306187,5.048762225,-99999.0,'11133222,11111222,99999999' 
TABS,ioos:station:wmo:42043:1,2017-08-23T17:00:00Z,28.9818,-94.9186,2.0,338.8062035,5.255473337,-99999.0,'11133222,11111222,99999999' 
TABS,ioos:station:wmo:42043:1,2017-08-23T17:30:00Z,28.9818,-94.9186,2.0,333.4352214,4.695742753,-99999.0,'11133222,11111222,99999999' 
TABS,ioos:station:wmo:42043:1,2017-08-23T18:00:00Z,28.9818,-94.9186,2.0,354.8057937,5.522680509,-99999.0,'11133222,11111222,99999999' 
TABS,ioos:station:wmo:42043:1,2017-08-23T18:30:00Z,28.9818,-94.9186,2.0,1.332427197,4.301162634,-99999.0,'11133222,11111222,99999999' 
TABS,ioos:station:wmo:42043:1,2017-08-23T19:00:00Z,28.9818,-94.9186,2.0,347.3916331,7.787810989,-99999.0,'11133222,11111222,99999999' 
TABS,ioos:station:wmo:42043:1,2017-08-23T19:30:00Z,28.9818,-94.9186,2.0,356.5937747,8.414867795,-99999.0,'11133222,11111222,99999999' 
TABS,ioos:station:wmo:42043:1,2017-08-23T20:00:00Z,28.9818,-94.9186,2.0,19.23083786,9.108238029,-99999.0,'11133222,11111222,99999999' 
TABS,ioos:station:wmo:42043:1,2017-08-23T20:30:00Z,28.9818,-94.9186,2.0,4.085817685,4.210700654,-99999.0,'11133222,11111222,99999999' 
TABS,ioos:station:wmo:42043:1,2017-08-23T21:00:00Z,28.9818,-94.9186,2.0,347.0056241,8.004998438,-99999.0,'11133222,11111222,99999999' 
TABS,ioos:station:wmo:42043:1,2017-08-23T21:30:00Z,28.9818,-94.9186,2.0,339.7345604,6.928924881,-99999.0,'11133222,11111222,99999999' 
TABS,ioos:station:wmo:42043:1,2017-08-23T22:00:00Z,28.9818,-94.9186,2.0,341.3584622,8.759566199,-99999.0,'11133222,11111222,99999999' 
TABS,ioos:station:wmo:42043:1,2017-08-23T22:30:00Z,28.9818,-94.9186,2.0,342.9923033,8.888756943,-99999.0,'11133222,11111222,99999999' 
TABS,ioos:station:wmo:42043:1,2017-08-23T23:00:00Z,28.9818,-94.9186,2.0,340.588769,11.13283432,-99999.0,'11111222,11111222,99999999' 
TABS,ioos:station:wmo:42043:1,2017-08-23T23:30:00Z,28.9818,-94.9186,2.0,349.1501312,12.2184287,-99999.0,'11111222,11111222,99999999' 
TABS,ioos:station:wmo:42043:1,2017-08-24T00:00:00Z,28.9818,-94.9186,2.0,352.4552991,15.23187447,-99999.0,'11111222,11111222,99999999' 
TABS,ioos:station:wmo:42043:1,2017-08-24T00:30:00Z,28.9818,-94.9186,2.0,351.5452026,14.96262009,-99999.0,'11111222,11111222,99999999' 
TABS,ioos:station:wmo:42043:1,2017-08-24T01:00:00Z,28.9818,-94.9186,2.0,340.7280585,15.14892735,-99999.0,'11111222,11111222,99999999' 
TABS,ioos:station:wmo:42043:1,2017-08-24T01:30:00Z,28.9818,-94.9186,2.0,337.7243647,17.9387848,-99999.0,'11111222,11111222,99999999' 
TABS,ioos:station:wmo:42043:1,2017-08-24T02:00:00Z,28.9818,-94.9186,2.0,353.2697423,16.21172415,-99999.0,'11111222,11111222,99999999' 
TABS,ioos:station:wmo:42043:1,2017-08-24T02:30:00Z,28.9818,-94.9186,2.0,354.9577712,13.65283853,-99999.0,'11111222,11111222,99999999' 
TABS,ioos:station:wmo:42043:1,2017-08-24T03:00:00Z,28.9818,-94.9186,2.0,349.1671894,16.49393828,-99999.0,'11111222,11111222,99999999' 
TABS,ioos:station:wmo:42043:1,2017-08-24T03:30:00Z,28.9818,-94.9186,2.0,351.5290856,14.25552524,-99999.0,'11111222,11111222,99999999' 
TABS,ioos:station:wmo:42043:1,2017-08-24T04:00:00Z,28.9818,-94.9186,2.0,351.4956511,10.81896483,-99999.0,'11111222,11111222,99999999' 
TABS,ioos:station:wmo:42043:1,2017-08-24T04:30:00Z,28.9818,-94.9186,2.0,1.893591877,12.10660976,-99999.0,'11111222,11111222,99999999' 
TABS,ioos:station:wmo:42043:1,2017-08-24T05:00:00Z,28.9818,-94.9186,2.0,2.361579595,9.708243919,-99999.0,'11133222,11111222,99999999' 
TABS,ioos:station:wmo:42043:1,2017-08-24T05:30:00Z,28.9818,-94.9186,2.0,6.789169158,8.459314393,-99999.0,'11133222,11111222,99999999' 
TABS,ioos:station:wmo:42043:1,2017-08-24T06:00:00Z,28.9818,-94.9186,2.0,18.19933295,7.684399781,-99999.0,'11133222,11111222,99999999' 
TABS,ioos:station:wmo:42043:1,2017-08-24T06:30:00Z,28.9818,-94.9186,2.0,32.47132682,6.519202405,-99999.0,'11133222,11111222,99999999' 
TABS,ioos:station:wmo:42043:1,2017-08-24T07:00:00Z,28.9818,-94.9186,2.0,14.53463155,8.367795409,-99999.0,'11133222,11111222,99999999' 
TABS,ioos:station:wmo:42043:1,2017-08-24T07:30:00Z,28.9818,-94.9186,2.0,20.07168939,5.536244214,-99999.0,'11133222,11111222,99999999' 
TABS,ioos:station:wmo:42043:1,2017-08-24T08:00:00Z,28.9818,-94.9186,2.0,34.59241825,7.045565982,-99999.0,'11133222,11111222,99999999' 
TABS,ioos:station:wmo:42043:1,2017-08-24T08:30:00Z,28.9818,-94.9186,2.0,35.80347084,7.521303079,-99999.0,'11133222,11111222,99999999' 
TABS,ioos:station:wmo:42043:1,2017-08-24T09:00:00Z,28.9818,-94.9186,2.0,11.11322501,5.707013229,-99999.0,'11133222,11111222,99999999' 
TABS,ioos:station:wmo:42043:1,2017-08-24T09:30:00Z,28.9818,-94.9186,2.0,26.56519952,6.93181073,-99999.0,'11133222,11111222,99999999' 
TABS,ioos:station:wmo:42043:1,2017-08-24T10:00:00Z,28.9818,-94.9186,2.0,20.44971025,6.296824597,-99999.0,'11133222,11111222,99999999' 
TABS,ioos:station:wmo:42043:1,2017-08-24T10:30:00Z,28.9818,-94.9186,2.0,11.31011649,6.628725368,-99999.0,'11133222,11111222,99999999' 
TABS,ioos:station:wmo:42043:1,2017-08-24T11:00:00Z,28.9818,-94.9186,2.0,10.12485844,5.688585061,-99999.0,'11133222,11111222,99999999' 
TABS,ioos:station:wmo:42043:1,2017-08-24T11:30:00Z,28.9818,-94.9186,2.0,359.0453714,6.000833275,-99999.0,'11133222,11144222,99999999' 
TABS,ioos:station:wmo:42043:1,2017-08-24T12:00:00Z,28.9818,-94.9186,2.0,6.809244716,6.747592163,-99999.0,'11133222,11111222,99999999' 
TABS,ioos:station:wmo:42043:1,2017-08-24T12:30:00Z,28.9818,-94.9186,2.0,8.498749465,8.796590248,-99999.0,'11133222,11111222,99999999' 
TABS,ioos:station:wmo:42043:1,2017-08-24T13:00:00Z,28.9818,-94.9186,2.0,337.8908138,10.36194962,-99999.0,'11111222,11111222,99999999' 
TABS,ioos:station:wmo:42043:1,2017-08-24T13:30:00Z,28.9818,-94.9186,2.0,345.1319639,11.69144987,-99999.0,'11111222,11111222,99999999' 
TABS,ioos:station:wmo:42043:1,2017-08-24T14:00:00Z,28.9818,-94.9186,2.0,350.049607,11.57410904,-99999.0,'11111222,11111222,99999999' 
TABS,ioos:station:wmo:42043:1,2017-08-24T14:30:00Z,28.9818,-94.9186,2.0,340.1595588,10.31212878,-99999.0,'11111222,11111222,99999999' 
TABS,ioos:station:wmo:42043:1,2017-08-24T15:00:00Z,28.9818,-94.9186,2.0,304.5487072,7.406078585,-99999.0,'11133222,11111222,99999999' 
TABS,ioos:station:wmo:42043:1,2017-08-24T15:30:00Z,28.9818,-94.9186,2.0,341.9568406,13.88272308,-99999.0,'11111222,11111222,99999999' 
TABS,ioos:station:wmo:42043:1,2017-08-24T16:00:00Z,28.9818,-94.9186,2.0,250.4971762,20.36860329,-99999.0,'11111222,11111222,99999999' 
TABS,ioos:station:wmo:42043:1,2017-08-24T16:30:00Z,28.9818,-94.9186,2.0,330.4399251,7.702596965,-99999.0,'11133222,11111222,99999999' 
TABS,ioos:station:wmo:42043:1,2017-08-24T17:00:00Z,28.9818,-94.9186,2.0,343.0881432,15.46900126,-99999.0,'11111222,11111222,99999999' 
TABS,ioos:station:wmo:42043:1,2017-08-24T17:30:00Z,28.9818,-94.9186,2.0,19.25524322,15.46512205,-99999.0,'11111222,11111222,99999999' 
TABS,ioos:station:wmo:42043:1,2017-08-24T18:00:00Z,28.9818,-94.9186,2.0,339.0757576,7.280109889,-99999.0,'11133222,11111222,99999999' 
TABS,ioos:station:wmo:42043:1,2017-08-24T18:30:00Z,28.9818,-94.9186,2.0,322.9699074,7.140028011,-99999.0,'11133222,11111222,99999999' 
TABS,ioos:station:wmo:42043:1,2017-08-24T19:00:00Z,28.9818,-94.9186,2.0,25.11498662,3.534119409,-99999.0,'11133222,11111222,99999999' 
TABS,ioos:station:wmo:42043:1,2017-08-24T19:30:00Z,28.9818,-94.9186,2.0,14.87585767,13.2438665,-99999.0,'11111222,11111222,99999999' 
TABS,ioos:station:wmo:42043:1,2017-08-24T20:00:00Z,28.9818,-94.9186,2.0,1.497794696,15.30522787,-99999.0,'11111222,11111222,99999999' 
TABS,ioos:station:wmo:42043:1,2017-08-24T20:30:00Z,28.9818,-94.9186,2.0,347.0056241,8.004998438,-99999.0,'11133222,11111222,99999999' 
TABS,ioos:station:wmo:42043:1,2017-08-24T21:00:00Z,28.9818,-94.9186,2.0,20.55620761,11.96160524,-99999.0,'11111222,11111222,99999999' 
TABS,ioos:station:wmo:42043:1,2017-08-24T21:30:00Z,28.9818,-94.9186,2.0,358.2287449,9.704638066,-99999.0,'11133222,11111222,99999999' 
TABS,ioos:station:wmo:42043:1,2017-08-24T22:00:00Z,28.9818,-94.9186,2.0,6.399152123,10.76707946,-99999.0,'11111222,11111222,99999999' 
TABS,ioos:station:wmo:42043:1,2017-08-24T22:30:00Z,28.9818,-94.9186,2.0,6.875012411,14.20211252,-99999.0,'11111222,11111222,99999999' 
TABS,ioos:station:wmo:42043:1,2017-08-24T23:00:00Z,28.9818,-94.9186,2.0,351.4310886,14.76482306,-99999.0,'11111222,11111222,99999999' 
TABS,ioos:station:wmo:42043:1,2017-08-24T23:30:00Z,28.9818,-94.9186,2.0,344.7839193,12.95414991,-99999.0,'11111222,11111222,99999999' 
TABS,ioos:station:wmo:42043:1,2017-08-25T00:00:00Z,28.9818,-94.9186,2.0,352.5565115,20.06913052,-99999.0,'11111222,11111222,99999999' 
TABS,ioos:station:wmo:42043:1,2017-08-25T00:30:00Z,28.9818,-94.9186,2.0,346.6689442,21.68432614,-99999.0,'11111222,11111222,99999999' 
TABS,ioos:station:wmo:42043:1,2017-08-25T01:00:00Z,28.9818,-94.9186,2.0,350.1854467,24.05202694,-99999.0,'11111222,11111222,99999999' 
TABS,ioos:station:wmo:42043:1,2017-08-25T01:30:00Z,28.9818,-94.9186,2.0,345.4082884,25.00659913,-99999.0,'11111222,11111222,99999999' 
TABS,ioos:station:wmo:42043:1,2017-08-25T02:00:00Z,28.9818,-94.9186,2.0,349.9791279,25.28576675,-99999.0,'11111222,11111222,99999999' 
TABS,ioos:station:wmo:42043:1,2017-08-25T02:30:00Z,28.9818,-94.9186,2.0,345.9156898,28.76473535,-99999.0,'11111222,11111222,99999999' 
TABS,ioos:station:wmo:42043:1,2017-08-25T03:00:00Z,28.9818,-94.9186,2.0,343.9799556,31.52427636,-99999.0,'11111222,11111222,99999999' 
TABS,ioos:station:wmo:42043:1,2017-08-25T03:30:00Z,28.9818,-94.9186,2.0,347.303026,33.21219655,-99999.0,'11111222,11111222,99999999' 
TABS,ioos:station:wmo:42043:1,2017-08-25T04:00:00Z,28.9818,-94.9186,2.0,343.4626033,30.56435833,-99999.0,'11111222,11111222,99999999' 
TABS,ioos:station:wmo:42043:1,2017-08-25T04:30:00Z,28.9818,-94.9186,2.0,345.7687854,28.47384765,-99999.0,'11111222,11111222,99999999' 
TABS,ioos:station:wmo:42043:1,2017-08-25T05:00:00Z,28.9818,-94.9186,2.0,347.6194825,29.38332861,-99999.0,'11111222,11111222,99999999' 
TABS,ioos:station:wmo:42043:1,2017-08-25T05:30:00Z,28.9818,-94.9186,2.0,358.32782,27.41167634,-99999.0,'11111222,11111222,99999999' 
TABS,ioos:station:wmo:42043:1,2017-08-25T06:00:00Z,28.9818,-94.9186,2.0,353.1078035,27.49872724,-99999.0,'11111222,11111222,99999999' 
TABS,ioos:station:wmo:42043:1,2017-08-25T06:30:00Z,28.9818,-94.9186,2.0,2.553102636,31.4311947,-99999.0,'11111222,11111222,99999999' 
TABS,ioos:station:wmo:42043:1,2017-08-25T07:00:00Z,28.9818,-94.9186,2.0,5.85621035,35.28413241,-99999.0,'11111222,11111222,99999999' 
TABS,ioos:station:wmo:42043:1,2017-08-25T07:30:00Z,28.9818,-94.9186,2.0,353.1347856,30.11594262,-99999.0,'11111222,11111222,99999999' 
TABS,ioos:station:wmo:42043:1,2017-08-25T08:00:00Z,28.9818,-94.9186,2.0,346.1974771,29.75936827,-99999.0,'11111222,11111222,99999999' 
TABS,ioos:station:wmo:42043:1,2017-08-25T08:30:00Z,28.9818,-94.9186,2.0,356.4238844,28.85619518,-99999.0,'11111222,11111222,99999999' 
TABS,ioos:station:wmo:42043:1,2017-08-25T09:00:00Z,28.9818,-94.9186,2.0,24.43250272,40.85890356,-99999.0,'11111222,11111222,99999999' 
TABS,ioos:station:wmo:42043:1,2017-08-25T09:30:00Z,28.9818,-94.9186,2.0,337.5643746,33.53863444,-99999.0,'11111222,11111222,99999999' 
TABS,ioos:station:wmo:42043:1,2017-08-25T10:00:00Z,28.9818,-94.9186,2.0,5.527737685,24.9158584,-99999.0,'11111222,11111222,99999999' 
TABS,ioos:station:wmo:42043:1,2017-08-25T10:30:00Z,28.9818,-94.9186,2.0,14.22264681,22.38615644,-99999.0,'11111222,11111222,99999999' 
TABS,ioos:station:wmo:42043:1,2017-08-25T11:00:00Z,28.9818,-94.9186,2.0,356.9451953,35.65066619,-99999.0,'11111222,11111222,99999999' 
TABS,ioos:station:wmo:42043:1,2017-08-25T11:30:00Z,28.9818,-94.9186,2.0,22.25712107,30.36214749,-99999.0,'11111222,11111222,99999999' 
TABS,ioos:station:wmo:42043:1,2017-08-25T12:00:00Z,28.9818,-94.9186,2.0,3.004683589,36.24982759,-99999.0,'11111222,11111222,99999999' 
TABS,ioos:station:wmo:42043:1,2017-08-25T12:30:00Z,28.9818,-94.9186,2.0,355.9806374,55.63685829,-99999.0,'11111222,11111222,99999999' 
TABS,ioos:station:wmo:42043:1,2017-08-25T13:00:00Z,28.9818,-94.9186,2.0,350.049607,52.08349067,-99999.0,'11111222,11111222,99999999' 
TABS,ioos:station:wmo:42043:1,2017-08-25T13:30:00Z,28.9818,-94.9186,2.0,347.2150253,53.32204047,-99999.0,'11111222,11111222,99999999' 
TABS,ioos:station:wmo:42043:1,2017-08-25T14:00:00Z,28.9818,-94.9186,2.0,2.489757559,48.34563062,-99999.0,'11111222,11111222,99999999' 
TABS,ioos:station:wmo:42043:1,2017-08-25T14:30:00Z,28.9818,-94.9186,2.0,330.4416978,41.96117253,-99999.0,'11111222,11111222,99999999' 
TABS,ioos:station:wmo:42043:1,2017-08-25T15:00:00Z,28.9818,-94.9186,2.0,348.0709162,43.54032614,-99999.0,'11111222,11111222,99999999' 
TABS,ioos:station:wmo:42043:1,2017-08-25T15:30:00Z,28.9818,-94.9186,2.0,0.000210459,54.7,-99999.0,'11111222,11111222,99999999' 
TABS,ioos:station:wmo:42043:1,2017-08-25T16:00:00Z,28.9818,-94.9186,2.0,351.263133,48.05767368,-99999.0,'11111222,11111222,99999999' 
TABS,ioos:station:wmo:42043:1,2017-08-25T16:30:00Z,28.9818,-94.9186,2.0,19.2029123,49.55734053,-99999.0,'11111222,11111222,99999999' 
TABS,ioos:station:wmo:42043:1,2017-08-25T17:00:00Z,28.9818,-94.9186,2.0,13.34102597,35.97068251,-99999.0,'11111222,11111222,99999999' 
TABS,ioos:station:wmo:42043:1,2017-08-25T17:30:00Z,28.9818,-94.9186,2.0,358.5251121,46.61544808,-99999.0,'11111222,11111222,99999999' 
TABS,ioos:station:wmo:42043:1,2017-08-25T18:00:00Z,28.9818,-94.9186,2.0,355.2106699,55.09237697,-99999.0,'11111222,11111222,99999999' 
TABS,ioos:station:wmo:42043:1,2017-08-25T18:30:00Z,28.9818,-94.9186,2.0,5.416344187,56.15069011,-99999.0,'11111222,11111222,99999999' 
TABS,ioos:station:wmo:42043:1,2017-08-25T19:00:00Z,28.9818,-94.9186,2.0,4.44039404,52.95894636,-99999.0,'11111222,11111222,99999999' 
TABS,ioos:station:wmo:42043:1,2017-08-25T19:30:00Z,28.9818,-94.9186,2.0,11.69912071,60.66011869,-99999.0,'11111222,11111222,99999999' 
TABS,ioos:station:wmo:42043:1,2017-08-25T20:00:00Z,28.9818,-94.9186,2.0,353.5675716,61.58774229,-99999.0,'11111222,11111222,99999999' 
TABS,ioos:station:wmo:42043:1,2017-08-25T20:30:00Z,28.9818,-94.9186,2.0,328.3703279,50.14957627,-99999.0,'11111222,11111222,99999999' 
TABS,ioos:station:wmo:42043:1,2017-08-25T21:00:00Z,28.9818,-94.9186,2.0,356.5948981,60.6070128,-99999.0,'11111222,11111222,99999999' 
TABS,ioos:station:wmo:42043:1,2017-08-25T21:30:00Z,28.9818,-94.9186,2.0,345.3951578,61.07348033,-99999.0,'11111222,11111222,99999999' 
TABS,ioos:station:wmo:42043:1,2017-08-25T22:00:00Z,28.9818,-94.9186,2.0,350.6684539,72.15490281,-99999.0,'11111222,11111222,99999999' 
TABS,ioos:station:wmo:42043:1,2017-08-25T22:30:00Z,28.9818,-94.9186,2.0,6.077685664,48.17073801,-99999.0,'11111222,11111222,99999999' 
TABS,ioos:station:wmo:42043:1,2017-08-25T23:00:00Z,28.9818,-94.9186,2.0,359.7511005,46.00043478,-99999.0,'11111222,11144222,99999999' 
TABS,ioos:station:wmo:42043:1,2017-08-25T23:30:00Z,28.9818,-94.9186,2.0,354.5451366,73.63348423,-99999.0,'11111222,11111222,99999999' 
TABS,ioos:station:wmo:42043:1,2017-08-26T00:00:00Z,28.9818,-94.9186,2.0,355.0127964,70.16566112,-99999.0,'11111222,11111222,99999999' 
TABS,ioos:station:wmo:42043:1,2017-08-26T00:30:00Z,28.9818,-94.9186,2.0,349.4593273,75.98223477,-99999.0,'11111222,11111222,99999999' 
TABS,ioos:station:wmo:42043:1,2017-08-26T01:00:00Z,28.9818,-94.9186,2.0,335.7236995,48.15859217,-99999.0,'11111222,11111222,99999999' 
TABS,ioos:station:wmo:42043:1,2017-08-26T01:30:00Z,28.9818,-94.9186,2.0,348.1695927,71.21270954,-99999.0,'11111222,11111222,99999999' 
TABS,ioos:station:wmo:42043:1,2017-08-26T02:00:00Z,28.9818,-94.9186,2.0,336.5608894,65.61440391,-99999.0,'11111222,11111222,99999999' 
TABS,ioos:station:wmo:42043:1,2017-08-26T02:30:00Z,28.9818,-94.9186,2.0,351.7889143,79.81829364,-99999.0,'11111222,11111222,99999999' 
TABS,ioos:station:wmo:42043:1,2017-08-26T03:00:00Z,28.9818,-94.9186,2.0,7.571632406,65.26905852,-99999.0,'11111222,11111222,99999999' 
TABS,ioos:station:wmo:42043:1,2017-08-26T03:30:00Z,28.9818,-94.9186,2.0,345.7357315,60.87692502,-99999.0,'11111222,11111222,99999999' 
TABS,ioos:station:wmo:42043:1,2017-08-26T04:00:00Z,28.9818,-94.9186,2.0,344.7327606,81.26819796,-99999.0,'11111222,11111222,99999999' 
TABS,ioos:station:wmo:42043:1,2017-08-26T04:30:00Z,28.9818,-94.9186,2.0,348.1856408,75.70376477,-99999.0,'11111222,11111222,99999999' 
TABS,ioos:station:wmo:42043:1,2017-08-26T05:00:00Z,28.9818,-94.9186,2.0,348.1939114,86.01976517,-99999.0,'11111222,11111222,99999999' 
TABS,ioos:station:wmo:42043:1,2017-08-26T05:30:00Z,28.9818,-94.9186,2.0,7.008300302,72.94497927,-99999.0,'11111222,11111222,99999999' 
TABS,ioos:station:wmo:42043:1,2017-08-26T06:00:00Z,28.9818,-94.9186,2.0,350.9703601,93.66077087,-99999.0,'11111222,11111222,99999999' 
TABS,ioos:station:wmo:42043:1,2017-08-26T06:30:00Z,28.9818,-94.9186,2.0,329.0585886,44.53818586,-99999.0,'11111222,11111222,99999999' 
TABS,ioos:station:wmo:42043:1,2017-08-26T07:00:00Z,28.9818,-94.9186,2.0,345.1157611,78.63866733,-99999.0,'11111222,11111222,99999999' 
TABS,ioos:station:wmo:42043:1,2017-08-26T07:30:00Z,28.9818,-94.9186,2.0,359.7707231,74.9006008,-99999.0,'11111222,11144222,99999999' 
TABS,ioos:station:wmo:42043:1,2017-08-26T08:00:00Z,28.9818,-94.9186,2.0,350.0344888,78.58574934,-99999.0,'11111222,11111222,99999999' 
TABS,ioos:station:wmo:42043:1,2017-08-26T08:30:00Z,28.9818,-94.9186,2.0,351.4694648,86.96211819,-99999.0,'11111222,11111222,99999999' 